[[{"header":{"parameterUnit":"m.s-1","parameterCategory":1,"la1":30.2991,"la2":30.254,"lo1":-89.0895,"lo2":-89.0444,"dy":0.0017,"dx":0.0017,"nx":28,"ny":28,"refTime":"2024-10-10T03:00:00:Z","depth":0,"parameterNumber":2,"parameterNumberName":"U-component_of_WINDS"},"data":[0,0,0,0,0,0,0,0,0,0,0,0,0,0,0,0,0,0,0,0,0,0,0,0,0,0,0,0,0,0,0,0,0,0,0,0,0,0,0,0,0,0,0,0,0,0,0,0,0,0,0,0,0,0,0,0,0,0,-0.3234,-0.3234,0,-0.3296,-0.3297,-0.3297,-0.3309,-0.3309,-0.3308,-0.3308,-0.3372,-0.3374,-0.3376,0,0,0,0,0,0,0,0,0,0,0,0,0,-0.3124,-0.3126,-0.3234,-0.3234,-0.3235,-0.3296,-0.3297,-0.3298,-0.3309,-0.3309,-0.3308,-0.3308,-0.3371,-0.3373,-0.3376,0,0,0,0,0,0,0,0,0,0,0,0,0,-0.3177,-0.3127,-0.3233,-0.3248,-0.325,-0.3296,-0.3297,-0.3298,-0.331,-0.3309,-0.3308,-0.3307,-0.337,-0.3373,-0.3376,-0.3411,0,0,-0.3386,-0.3388,0,0,0,0,0,0,0,0,-0.3174,-0.3181,-0.3245,-0.3247,-0.325,-0.3294,-0.3281,-0.3336,-0.331,-0.3287,-0.3308,-0.3307,-0.3346,-0.3352,-0.3365,-0.3414,-0.3417,-0.3386,-0.3388,-0.339,-0.3391,0,0,0,0,0,0,0,-0.3171,-0.3179,-0.3258,-0.3246,-0.3249,-0.3252,-0.3258,-0.3292,-0.332,-0.3289,-0.329,-0.3297,-0.3347,-0.3362,-0.3366,-0.3418,-0.3386,-0.3389,-0.3391,-0.3393,-0.3498,-0.3499,0,0,0,0,0,0,-0.3164,-0.3176,-0.3256,-0.326,-0.3209,-0.3254,-0.3262,-0.3281,-0.332,-0.3325,-0.3298,-0.3298,-0.3357,-0.3363,-0.3369,-0.3412,-0.339,-0.3393,-0.3395,-0.3497,-0.3498,-0.3499,0,0,0,0,0,0,-0.3162,-0.3172,-0.3254,-0.3218,-0.3229,-0.3257,-0.3278,-0.3282,-0.3297,-0.3326,-0.3331,-0.3307,-0.3356,-0.3364,-0.34,-0.3415,-0.3394,-0.3397,-0.3496,-0.3498,-0.3499,-0.3499,0,0,0,0,0,0,-0.3159,-0.3171,-0.3184,-0.3218,-0.3231,-0.3285,-0.3279,-0.3284,-0.3302,-0.3302,-0.3337,-0.3342,-0.3356,-0.3396,-0.3404,-0.3419,-0.34,-0.3495,-0.3497,-0.3499,-0.3498,-0.35,-0.3502,0,0,0,0,0,-0.3155,-0.3182,-0.3185,-0.3195,-0.3249,-0.3286,-0.3293,-0.3309,-0.3303,-0.3317,-0.3336,-0.3341,-0.3411,-0.3399,-0.3408,-0.3425,-0.3495,-0.3497,-0.3498,-0.3497,-0.35,-0.3502,0,0,0,0,0,0,-0.3149,-0.3187,-0.3191,-0.3229,-0.3254,-0.3287,-0.3306,-0.3311,-0.3338,-0.3337,-0.3356,-0.3364,-0.3399,-0.3415,-0.3401,-0.346,-0.3453,-0.3456,-0.3448,-0.3451,-0.3453,-0.3449,-0.3402,0,0,0,0,0,-0.3152,-0.3179,-0.321,-0.3242,-0.3254,-0.3278,-0.3294,-0.3305,-0.3331,-0.3341,-0.3363,-0.3389,-0.3416,-0.3435,-0.3462,-0.35,-0.3508,-0.3516,-0.3518,-0.3519,-0.3523,-0.3544,-0.3548,-0.3506,-0.3506,-0.3506,0,0,-0.3159,-0.3183,-0.3199,-0.3241,-0.3262,-0.3289,-0.3286,-0.3316,-0.3336,-0.3346,-0.3382,-0.3398,-0.3428,-0.3465,-0.3483,-0.348,-0.3536,-0.3522,-0.3523,-0.3525,-0.3546,-0.355,-0.3554,-0.3507,-0.3507,-0.3507,0,0,-0.3186,-0.3206,-0.3235,-0.3255,-0.3286,-0.3301,-0.3308,-0.334,-0.3352,-0.3388,-0.3396,-0.342,-0.3468,-0.3489,-0.3505,-0.3539,-0.3544,-0.3547,-0.3559,-0.3579,-0.3583,-0.3586,-0.3598,-0.3602,-0.355,-0.355,-0.355,0,-0.319,-0.3232,-0.3249,-0.3278,-0.3296,-0.3306,-0.3335,-0.3353,-0.3391,-0.3404,-0.34,-0.346,-0.348,-0.3522,-0.353,-0.3543,-0.3552,-0.3544,-0.3581,-0.3584,-0.3587,-0.3599,-0.3604,-0.3551,-0.355,-0.355,-0.355,0,-0.3237,-0.3266,-0.3285,-0.3322,-0.3342,-0.337,-0.3391,-0.3409,-0.3417,-0.3433,-0.3469,-0.3494,-0.3527,-0.3537,-0.3545,-0.358,-0.3578,-0.3577,-0.357,-0.3591,-0.3603,-0.3607,-0.3551,-0.3551,-0.3551,-0.3551,0,0,-0.3263,-0.3308,-0.3314,-0.3331,-0.3365,-0.3388,-0.3416,-0.3448,-0.3464,-0.3489,-0.3514,-0.3554,-0.3553,-0.3572,-0.3582,-0.36,-0.3626,-0.3597,-0.3598,-0.3602,-0.3666,-0.3667,-0.3672,-0.3629,-0.363,-0.363,-0.3664,0,-0.3294,-0.3347,-0.3362,-0.3405,-0.3432,-0.3441,-0.3466,-0.349,-0.3505,-0.3529,-0.3546,-0.3574,-0.3571,-0.3582,-0.36,-0.3619,-0.3639,-0.3616,-0.3652,-0.3653,-0.3646,-0.3678,-0.368,-0.371,-0.3668,-0.3669,-0.367,0,-0.3338,-0.3365,-0.3411,-0.3442,-0.3454,-0.3476,-0.3506,-0.353,-0.3556,-0.3566,-0.3586,-0.3595,-0.3625,-0.3616,-0.3657,-0.3642,-0.3657,-0.3668,-0.367,-0.3674,-0.3664,-0.3685,-0.372,-0.3725,-0.3677,-0.3676,-0.3676,0,-0.3353,-0.34,-0.3434,-0.3448,-0.3485,-0.35,-0.3516,-0.3542,-0.356,-0.3586,-0.3598,-0.3627,-0.3643,-0.3665,-0.3681,-0.3673,-0.3721,-0.3713,-0.3731,-0.373,-0.3742,-0.3741,-0.3781,-0.375,-0.375,-0.375,-0.3749,0,-0.3387,-0.3416,-0.3442,-0.3463,-0.3494,-0.3511,-0.3542,-0.3558,-0.3581,-0.3605,-0.3614,-0.3636,-0.3656,-0.3681,-0.3693,-0.3726,-0.3733,-0.3742,-0.3745,-0.3742,-0.3741,-0.3753,-0.3751,-0.3751,-0.375,-0.375,-0.375,0,-0.341,-0.3429,-0.3466,-0.3497,-0.3506,-0.3528,-0.3554,-0.3575,-0.359,-0.362,-0.3628,-0.3652,-0.3681,-0.3699,-0.3737,-0.3745,-0.3782,-0.3784,-0.3773,-0.3775,-0.3791,-0.379,-0.3841,-0.3849,-0.3812,-0.3812,-0.3812,0,-0.3431,-0.3453,-0.3487,-0.3503,-0.3519,-0.3546,-0.3565,-0.3581,-0.36,-0.3632,-0.3648,-0.3678,-0.3704,-0.3751,-0.3771,-0.38,-0.3803,-0.3819,-0.3807,-0.3803,-0.3804,-0.3803,-0.3805,-0.3821,-0.3821,-0.3822,-0.3822,0,-0.3467,-0.3475,-0.3501,-0.353,-0.3552,-0.3576,-0.36,-0.3613,-0.3633,-0.3654,-0.3684,-0.3704,-0.3742,-0.3772,-0.3802,-0.3818,-0.3824,-0.3825,-0.3831,-0.3828,-0.3821,-0.3826,-0.3779,-0.3824,-0.3824,-0.3824,-0.3824,-0.3824,-0.349,-0.351,-0.3536,-0.3565,-0.3585,-0.3607,-0.3627,-0.3645,-0.3671,-0.3703,-0.3711,-0.3743,-0.3769,-0.381,-0.3826,-0.3851,-0.3849,-0.3857,-0.3859,-0.3861,-0.3862,-0.3816,-0.3857,-0.3857,-0.3857,-0.3857,-0.3857,0,-0.3526,-0.3544,-0.357,-0.3603,-0.3626,-0.3628,-0.3655,-0.3673,-0.3701,-0.3725,-0.3749,-0.3784,-0.3813,-0.3835,-0.3865,-0.388,-0.3884,-0.3888,-0.3887,-0.3891,-0.3862,-0.3855,-0.3885,-0.3885,-0.3885,-0.3885,-0.3884,-0.3884,-0.3548,-0.3582,-0.3593,-0.3637,-0.3654,-0.3685,-0.37,-0.372,-0.3739,-0.3778,-0.3802,-0.3816,-0.3839,-0.387,-0.3896,-0.3902,-0.3913,-0.3916,-0.3923,-0.3896,-0.3893,-0.389,-0.3883,-0.3918,-0.3918,-0.3949,-0.395,-0.395]},{"header":{"parameterUnit":"m.s-1","parameterCategory":1,"la1":30.2991,"la2":30.254,"lo1":-89.0895,"lo2":-89.0444,"dy":0.0017,"dx":0.0017,"nx":28,"ny":28,"refTime":"2024-10-10T03:00:00:Z","depth":0,"parameterNumber":3,"parameterNumberName":"V-component_of_WINDS"},"data":[0,0,0,0,0,0,0,0,0,0,0,0,0,0,0,0,0,0,0,0,0,0,0,0,0,0,0,0,0,0,0,0,0,0,0,0,0,0,0,0,0,0,0,0,0,0,0,0,0,0,0,0,0,0,0,0,0,0,-3.6066,-3.6065,0,-3.5992,-3.5991,-3.599,-3.5867,-3.5865,-3.5863,-3.5861,-3.5786,-3.5786,-3.5786,0,0,0,0,0,0,0,0,0,0,0,0,0,-3.6104,-3.6104,-3.6066,-3.6065,-3.6064,-3.5992,-3.5991,-3.599,-3.5868,-3.5865,-3.5862,-3.586,-3.5786,-3.5786,-3.5786,0,0,0,0,0,0,0,0,0,0,0,0,0,-3.6065,-3.6104,-3.6066,-3.5995,-3.5987,-3.5992,-3.5991,-3.599,-3.5868,-3.5865,-3.5862,-3.5858,-3.5786,-3.5786,-3.5786,-3.5855,0,0,-3.5786,-3.5787,0,0,0,0,0,0,0,0,-3.6067,-3.6063,-3.6006,-3.6,-3.5992,-3.5935,-3.5977,-3.5945,-3.5869,-3.5914,-3.5861,-3.5857,-3.5838,-3.5834,-3.5828,-3.5852,-3.5848,-3.5786,-3.5787,-3.5787,-3.5787,0,0,0,0,0,0,0,-3.607,-3.6066,-3.6037,-3.6005,-3.5997,-3.5967,-3.5958,-3.597,-3.5896,-3.591,-3.59,-3.5893,-3.5834,-3.5828,-3.5825,-3.5847,-3.5786,-3.5787,-3.5787,-3.5787,-3.5927,-3.5931,0,0,0,0,0,0,-3.6083,-3.6069,-3.6039,-3.6035,-3.6022,-3.5969,-3.5958,-3.5957,-3.5896,-3.5883,-3.5896,-3.5888,-3.5829,-3.5825,-3.5822,-3.5901,-3.5787,-3.5787,-3.5787,-3.5924,-3.5928,-3.5932,0,0,0,0,0,0,-3.6084,-3.6082,-3.6042,-3.6049,-3.6042,-3.5972,-3.5971,-3.5957,-3.5951,-3.5886,-3.5872,-3.5904,-3.5826,-3.5822,-3.5848,-3.5896,-3.5787,-3.5787,-3.5919,-3.5925,-3.593,-3.6058,0,0,0,0,0,0,-3.6086,-3.6083,-3.6108,-3.6051,-3.6042,-3.607,-3.5974,-3.5958,-3.5952,-3.594,-3.5889,-3.5877,-3.5823,-3.5849,-3.5849,-3.5894,-3.5787,-3.5915,-3.5922,-3.5928,-3.6049,-3.6067,-3.6083,0,0,0,0,0,-3.6088,-3.6146,-3.611,-3.6107,-3.6072,-3.6073,-3.6068,-3.6004,-3.5956,-3.5981,-3.5939,-3.5879,-3.5891,-3.5853,-3.5851,-3.5898,-3.5911,-3.592,-3.5928,-3.6042,-3.6064,-3.6082,0,0,0,0,0,0,-3.6211,-3.6138,-3.6096,-3.6138,-3.6113,-3.6052,-3.6081,-3.6029,-3.6017,-3.6007,-3.5929,-3.5918,-3.5956,-3.5929,-3.5888,-3.5963,-3.5892,-3.59,-3.5979,-3.5999,-3.6016,-3.6022,-3.5787,0,0,0,0,0,-3.6243,-3.6249,-3.6185,-3.6228,-3.6217,-3.6152,-3.615,-3.6104,-3.6074,-3.6063,-3.6023,-3.5997,-3.5995,-3.5996,-3.599,-3.6045,-3.6033,-3.6076,-3.6093,-3.6107,-3.6116,-3.6145,-3.6164,-3.5959,-3.5959,-3.5958,0,0,-3.6309,-3.627,-3.6278,-3.6252,-3.6226,-3.6236,-3.6144,-3.6157,-3.6163,-3.6065,-3.6088,-3.6058,-3.6024,-3.6067,-3.6083,-3.6045,-3.617,-3.6117,-3.6129,-3.613,-3.6155,-3.6175,-3.6192,-3.5964,-3.5963,-3.5962,0,0,-3.6434,-3.6405,-3.6438,-3.6415,-3.6379,-3.6335,-3.6344,-3.6291,-3.6268,-3.629,-3.6217,-3.6224,-3.6222,-3.6201,-3.6191,-3.6311,-3.6256,-3.6312,-3.6399,-3.6429,-3.6445,-3.6459,-3.6504,-3.6521,-3.632,-3.632,-3.632,0,-3.6521,-3.6531,-3.6462,-3.6481,-3.6472,-3.6384,-3.6418,-3.6399,-3.6363,-3.636,-3.6318,-3.6315,-3.6286,-3.6323,-3.6353,-3.6347,-3.6355,-3.6317,-3.6448,-3.6461,-3.6473,-3.6516,-3.6533,-3.6327,-3.6327,-3.6326,-3.6325,0,-3.6641,-3.665,-3.6682,-3.6649,-3.6644,-3.6671,-3.6607,-3.661,-3.6565,-3.6526,-3.6551,-3.6513,-3.65,-3.6505,-3.646,-3.6537,-3.6515,-3.6462,-3.6389,-3.6502,-3.654,-3.6555,-3.6338,-3.6335,-3.6333,-3.6331,0,0,-3.6841,-3.6772,-3.6785,-3.677,-3.6724,-3.673,-3.6753,-3.674,-3.6745,-3.6724,-3.6743,-3.6744,-3.6695,-3.6684,-3.6636,-3.6662,-3.6763,-3.6606,-3.6604,-3.6638,-3.6848,-3.6889,-3.6909,-3.6726,-3.6728,-3.6731,-3.6851,0,-3.6958,-3.6994,-3.6933,-3.6983,-3.6992,-3.6909,-3.6929,-3.6904,-3.6869,-3.6872,-3.6833,-3.6837,-3.6771,-3.6764,-3.6786,-3.6746,-3.6804,-3.6736,-3.6744,-3.6745,-3.6757,-3.6928,-3.6971,-3.7087,-3.6865,-3.6868,-3.687,0,-3.7099,-3.7086,-3.7137,-3.709,-3.7091,-3.7111,-3.7095,-3.7098,-3.7069,-3.7042,-3.703,-3.6974,-3.6995,-3.6925,-3.6954,-3.6909,-3.6909,-3.689,-3.6893,-3.6893,-3.6815,-3.6934,-3.7122,-3.714,-3.6892,-3.689,-3.6889,0,-3.7243,-3.7237,-3.7267,-3.7257,-3.7202,-3.7219,-3.7197,-3.7164,-3.7161,-3.7147,-3.7145,-3.7134,-3.7129,-3.7123,-3.7066,-3.702,-3.7103,-3.7027,-3.7083,-3.7085,-3.7105,-3.7105,-3.7297,-3.7103,-3.7103,-3.7102,-3.7102,0,-3.7381,-3.7416,-3.7331,-3.735,-3.7388,-3.7319,-3.7358,-3.7328,-3.73,-3.7313,-3.724,-3.7254,-3.7177,-3.7184,-3.714,-3.7172,-3.7169,-3.715,-3.7138,-3.7157,-3.716,-3.7157,-3.7148,-3.7107,-3.7106,-3.7105,-3.7104,0,-3.7547,-3.7492,-3.752,-3.7466,-3.7454,-3.7484,-3.7439,-3.7455,-3.7416,-3.7433,-3.7433,-3.7373,-3.7376,-3.7319,-3.7311,-3.7282,-3.7335,-3.7308,-3.7345,-3.7337,-3.7397,-3.7393,-3.7595,-3.7619,-3.7408,-3.741,-3.7412,0,-3.7639,-3.7665,-3.7614,-3.7618,-3.76,-3.7606,-3.7602,-3.7536,-3.7535,-3.7505,-3.7526,-3.7523,-3.7518,-3.7528,-3.7484,-3.7478,-3.7452,-3.7523,-3.745,-3.747,-3.7455,-3.7455,-3.7459,-3.7539,-3.7541,-3.7543,-3.7545,0,-3.781,-3.7782,-3.7779,-3.7769,-3.7767,-3.7755,-3.7739,-3.7746,-3.7673,-3.7677,-3.768,-3.7676,-3.7669,-3.7669,-3.7655,-3.7633,-3.7579,-3.7568,-3.7581,-3.7602,-3.7624,-3.7615,-3.7389,-3.7564,-3.7562,-3.7561,-3.756,-3.7559,-3.7943,-3.7963,-3.7931,-3.7932,-3.7912,-3.7899,-3.7913,-3.7876,-3.7877,-3.7866,-3.7827,-3.7837,-3.7809,-3.7785,-3.7769,-3.7777,-3.7742,-3.7761,-3.7766,-3.7772,-3.7784,-3.7621,-3.7774,-3.7774,-3.7773,-3.7773,-3.7772,0,-3.8111,-3.8087,-3.8088,-3.8068,-3.807,-3.8017,-3.7997,-3.8002,-3.8012,-3.7991,-3.7987,-3.7992,-3.7992,-3.7949,-3.7944,-3.7959,-3.7934,-3.796,-3.7959,-3.7955,-3.7814,-3.7804,-3.798,-3.798,-3.798,-3.798,-3.798,-3.798,-3.8199,-3.823,-3.8199,-3.8221,-3.8196,-3.8206,-3.8199,-3.8188,-3.817,-3.8179,-3.8178,-3.815,-3.8121,-3.8113,-3.8111,-3.8099,-3.8101,-3.8136,-3.8116,-3.7985,-3.7965,-3.7946,-3.7936,-3.8137,-3.8137,-3.8256,-3.8257,-3.8258]}]]